ONEWEB-0620 (55161 NORAD) Tracking and Keplerian Element Data

This shows tracking and keplerian element data for the satellite.

Feedback or suggestion? Click here.




ElementValue
Catalog55161
NameONEWEB-0620
Epoch Orbit130
Epoch Day85.00001157
Epoch Year2023
RAAN256.9929
Inclination87.2601
Eccentricity0.000684
Argument of Perigee343.0491
Mean Anonmoly5.7793
Mean Motion13.8805056
Decay Rate-0.0098938
L11 55161U 23004X 23085.00001157 -.00989380 00000+0 -87888+0 0 9995
L22 55161 87.2601 256.9929 0006840 343.0491 5.7793 13.88050560 1309



Live tracking and technical data element details for ONEWEB-0620 (NORAD 55161). ONEWEB-0620 can be tracked NOW for your location showing map with azimuth and elevation plus other details from your city location.







IsCatalogInMostPopularTable: catalog: 55161, numindb: 10
Update: records affected: 1



GetName: 55161 ONEWEB-0620

Hit Count: updated at: Mon, 27 Mar 2023 08:04:32 GMT